DW3979 Weather Reports


Display with metric or nautical units.
time (UTC)temp
F
wind
direction
speed
MPH
gust
MPH
rain 1hr
in
rain 24hr
in
rain mn
in
humidity
%
barometer
mb
20260509222532 89 140 4.0 8.0 0.00 0.00 0.00 11 1014.0
20260509222035 90 204 4.0 11.0 0.00 0.00 0.00 10 1014.1
20260509221532 91 182 5.0 11.0 0.00 0.00 0.00 11 1014.1
20260509221032 91 188 6.0 11.0 0.00 0.00 0.00 11 1014.0
20260509220532 91 125 5.0 11.0 0.00 0.00 0.00 11 1014.0
20260509220031 90 134 4.0 10.0 0.00 0.00 0.00 12 1014.1
20260509215532 89 165 2.0 10.0 0.00 0.00 0.00 12 1014.3
20260509215033 89 150 0.0 2.0 0.00 0.00 0.00 12 1014.3
20260509214532 88 134 0.0 2.0 0.00 0.00 0.00 13 1014.4
20260509214032 87 134 3.0 6.0 0.00 0.00 0.00 11 1014.6
20260509213530 88 159 4.0 9.0 0.00 0.00 0.00 11 1014.8
20260509213028 89 190 2.0 9.0 0.00 0.00 0.00 11 1014.8
20260509212528 90 193 2.0 7.0 0.00 0.00 0.00 11 1014.8
20260509212028 91 167 3.0 7.0 0.00 0.00 0.00 11 1014.8
20260509211528 91 136 2.0 6.0 0.00 0.00 0.00 11 1014.8
20260509211028 89 126 2.0 4.0 0.00 0.00 0.00 11 1014.8
20260509210528 89 115 2.0 4.0 0.00 0.00 0.00 11 1014.9
20260509210026 90 104 1.0 3.0 0.00 0.00 0.00 11 1015.1
20260509205527 91 122 1.0 6.0 0.00 0.00 0.00 10 1015.2
20260509205024 91 101 2.0 6.0 0.00 0.00 0.00 10 1015.2
20260509204524 91 109 2.0 5.0 0.00 0.00 0.00 11 1015.1
20260509204018 92 146 2.0 6.0 0.00 0.00 0.00 11 1015.4
20260509203518 92 99 1.0 6.0 0.00 0.00 0.00 10 1015.5
20260509203018 92 94 1.0 3.0 0.00 0.00 0.00 10 1015.5
20260509202516 91 32 1.0 4.0 0.00 0.00 0.00 10 1015.5
20260509202014 92 126 1.0 4.0 0.00 0.00 0.00 11 1015.6
20260509201013 91 65 1.0 4.0 0.00 0.00 0.00 10 1015.8
20260509200513 91 117 1.0 3.0 0.00 0.00 0.00 10 1015.8
20260509200014 91 121 1.0 4.0 0.00 0.00 0.00 10 1015.9
20260509195514 92 138 1.0 4.0 0.00 0.00 0.00 9 1015.9
20260509195016 92 89 2.0 6.0 0.00 0.00 0.00 9 1016.0
20260509194513 93 80 2.0 6.0 0.00 0.00 0.00 9 1016.0
20260509194013 93 15 2.0 5.0 0.00 0.00 0.00 9 1016.0
20260509192512 94 92 2.0 3.0 0.00 0.00 0.00 9 1016.2
20260509192012 94 84 1.0 3.0 0.00 0.00 0.00 9 1016.4
20260509191010 94 78 1.0 9.0 0.00 0.00 0.00 10 1016.6
20260509190513 93 84 1.0 9.0 0.00 0.00 0.00 10 1016.5
20260509185506 93 14 1.0 4.0 0.00 0.00 0.00 10 1016.7
20260509185006 92 105 1.0 3.0 0.00 0.00 0.00 10 1016.6
20260509184004 92 47 1.0 7.0 0.00 0.00 0.00 10 1016.8
20260509183504 91 77 1.0 6.0 0.00 0.00 0.00 10 1016.8
20260509182504 90 113 1.0 3.0 0.00 0.00 0.00 11 1017.2
20260509182004 89 107 1.0 3.0 0.00 0.00 0.00 12 1017.2
20260509181504 89 97 2.0 3.0 0.00 0.00 0.00 11 1017.3
20260509180502 89 63 1.0 3.0 0.00 0.00 0.00 11 1017.3
20260509175500 89 19 1.0 3.0 0.00 0.00 0.00 12 1017.5
20260509174959 88 109 1.0 3.0 0.00 0.00 0.00 12 1017.5
20260509174455 88 111 1.0 3.0 0.00 0.00 0.00 12 1017.6
20260509173956 87 110 1.0 3.0 0.00 0.00 0.00 12 1017.6
20260509173457 87 152 1.0 3.0 0.00 0.00 0.00 13 1017.6
20260509172954 86 84 1.0 3.0 0.00 0.00 0.00 12 1017.6
20260509172454 86 16 0.0 2.0 0.00 0.00 0.00 11 1017.7
20260509171953 85 60 0.0 2.0 0.00 0.00 0.00 13 1017.7
20260509171454 85 86 1.0 2.0 0.00 0.00 0.00 12 1017.7
20260509170954 85 82 1.0 3.0 0.00 0.00 0.00 13 1017.9
20260509170454 85 98 0.0 3.0 0.00 0.00 0.00 12 1017.9
20260509165954 84 145 1.0 3.0 0.00 0.00 0.00 13 1017.9
20260509165454 84 109 1.0 3.0 0.00 0.00 0.00 13 1017.9
20260509164954 84 101 0.0 2.0 0.00 0.00 0.00 13 1017.9
20260509164454 83 92 0.0 2.0 0.00 0.00 0.00 13 1017.9
20260509163954 83 72 0.0 2.0 0.00 0.00 0.00 15 1017.9
20260509163454 82 92 1.0 3.0 0.00 0.00 0.00 14 1018.0
20260509162952 81 5 0.0 3.0 0.00 0.00 0.00 14 1017.9
20260509162452 81 66 0.0 2.0 0.00 0.00 0.00 15 1017.9
20260509161950 80 28 0.0 2.0 0.00 0.00 0.00 14 1018.0
20260509161450 80 60 0.0 2.0 0.00 0.00 0.00 14 1018.0
20260509160950 80 50 0.0 1.0 0.00 0.00 0.00 14 1018.0
20260509160450 80 30 0.0 1.0 0.00 0.00 0.00 15 1018.1
20260509155950 79 29 0.0 0.0 0.00 0.00 0.00 15 1018.1
20260509155451 79 66 0.0 2.0 0.00 0.00 0.00 15 1018.1
20260509154949 78 26 0.0 2.0 0.00 0.00 0.00 15 1018.1
20260509154448 78 59 0.0 0.0 0.00 0.00 0.00 16 1018.1
20260509153946 78 355 0.0 0.0 0.00 0.00 0.00 15 1018.0
20260509153446 77 351 0.0 1.0 0.00 0.00 0.00 16 1018.1
20260509152943 76 347 0.0 2.0 0.00 0.00 0.00 16 1018.1
20260509152444 76 346 0.0 2.0 0.00 0.00 0.00 16 1018.1
20260509151940 76 344 0.0 1.0 0.00 0.00 0.00 17 1018.1
20260509150438 75 250 0.0 0.0 0.00 0.00 0.00 18 1018.1
20260509145941 75 250 0.0 0.0 0.00 0.00 0.00 17 1018.2
20260509145438 74 250 0.0 0.0 0.00 0.00 0.00 19 1018.1
20260509144936 74 251 0.0 0.0 0.00 0.00 0.00 18 1018.1
20260509144435 74 251 0.0 0.0 0.00 0.00 0.00 19 1018.1
20260509143933 74 223 0.0 0.0 0.00 0.00 0.00 19 1018.0
20260509143434 73 223 0.0 0.0 0.00 0.00 0.00 18 1018.1
20260509142928 73 223 0.0 0.0 0.00 0.00 0.00 19 1018.1
20260509142426 72 223 0.0 0.0 0.00 0.00 0.00 20 1018.0
20260509141926 72 223 0.0 0.0 0.00 0.00 0.00 20 1018.1
20260509141424 71 223 0.0 0.0 0.00 0.00 0.00 21 1018.0
20260509140921 70 223 0.0 0.0 0.00 0.00 0.00 23 1018.0
20260509140421 68 223 0.0 0.0 0.00 0.00 0.00 21 1017.9
20260509135919 67 223 0.0 0.0 0.00 0.00 0.00 24 1017.9
20260509135420 67 223 0.0 0.0 0.00 0.00 0.00 24 1017.7
20260509134918 66 223 0.0 0.0 0.00 0.00 0.00 24 1017.7
20260509134421 65 223 0.0 0.0 0.00 0.00 0.00 24 1017.7
20260509133915 65 223 0.0 0.0 0.00 0.00 0.00 26 1017.6
20260509132412 64 223 0.0 0.0 0.00 0.00 0.00 26 1017.5
20260509131910 63 223 0.0 0.0 0.00 0.00 0.00 25 1017.4
20260509130908 63 223 0.0 0.0 0.00 0.00 0.00 25 1017.3
20260509125406 63 207 0.0 0.0 0.00 0.00 0.00 23 1017.3
20260509124906 63 207 0.0 0.0 0.00 0.00 0.00 22 1017.2
20260509124405 64 207 0.0 0.0 0.00 0.00 0.00 23 1017.1
20260509123908 64 207 0.0 2.0 0.00 0.00 0.00 22 1016.9
20260509123406 64 207 1.0 2.0 0.00 0.00 0.00 22 1016.8
20260509122904 63 207 0.0 2.0 0.00 0.00 0.00 22 1016.8
20260509122404 63 207 0.0 0.0 0.00 0.00 0.00 22 1016.8
20260509121359 64 207 0.0 0.0 0.00 0.00 0.00 22 1016.8
20260509120900 64 207 0.0 0.0 0.00 0.00 0.00 22 1016.7
20260509120359 64 207 0.0 0.0 0.00 0.00 0.00 22 1016.6
20260509115356 64 207 1.0 2.0 0.00 0.00 0.00 22 1016.6
20260509114354 64 207 0.0 0.0 0.00 0.00 0.00 22 1016.6
20260509113852 64 207 0.0 0.0 0.00 0.00 0.00 22 1016.6
20260509113352 64 207 0.0 0.0 0.00 0.00 0.00 22 1016.6
20260509112852 64 207 0.0 3.0 0.00 0.00 0.00 23 1016.7
20260509112346 64 207 0.0 3.0 0.00 0.00 0.00 22 1016.6
20260509111845 64 245 0.0 2.0 0.00 0.00 0.00 22 1016.6
20260509111344 64 284 0.0 0.0 0.00 0.00 0.00 22 1016.6
20260509110844 64 284 0.0 0.0 0.00 0.00 0.00 22 1016.6
20260509110344 64 284 0.0 0.0 0.00 0.00 0.00 23 1016.6
20260509105844 63 284 0.0 0.0 0.00 0.00 0.00 23 1016.5
20260509105344 64 284 0.0 0.0 0.00 0.00 0.00 23 1016.6
20260509104844 64 284 0.0 1.0 0.00 0.00 0.00 23 1016.6
20260509104344 64 284 0.0 1.0 0.00 0.00 0.00 23 1016.6
20260509103844 64 283 0.0 2.0 0.00 0.00 0.00 23 1016.5
20260509103344 64 283 0.0 2.0 0.00 0.00 0.00 23 1016.6
20260509102843 64 266 0.0 2.0 0.00 0.00 0.00 23 1016.5
20260509102344 65 266 0.0 2.0 0.00 0.00 0.00 22 1016.7
20260509101844 65 266 0.0 1.0 0.00 0.00 0.00 22 1016.7
20260509101343 65 265 0.0 0.0 0.00 0.00 0.00 22 1016.7
20260509100844 65 265 0.0 0.0 0.00 0.00 0.00 22 1016.7
20260509100344 65 265 0.0 0.0 0.00 0.00 0.00 22 1016.7
20260509095844 65 265 0.0 1.0 0.00 0.00 0.00 22 1016.8
20260509095343 66 265 0.0 2.0 0.00 0.00 0.00 21 1016.7
20260509091843 67 134 0.0 0.0 0.00 0.00 0.00 20 1016.7
20260509091344 68 134 0.0 0.0 0.00 0.00 0.00 20 1016.6
20260509090844 68 134 0.0 0.0 0.00 0.00 0.00 20 1016.7
20260509090344 68 134 0.0 0.0 0.00 0.00 0.00 20 1016.7
20260509085344 69 134 0.0 0.0 0.00 0.00 0.00 19 1016.6
20260509084844 70 134 1.0 2.0 0.00 0.00 0.00 19 1016.6
20260509084343 70 134 1.0 3.0 0.00 0.00 0.00 19 1016.6
20260509083843 70 135 1.0 3.0 0.00 0.00 0.00 19 1016.5
20260509083344 70 114 1.0 3.0 0.00 0.00 0.00 19 1016.5
20260509082844 70 184 0.0 2.0 0.00 0.00 0.00 19 1016.5
20260509082344 70 183 1.0 3.0 0.00 0.00 0.00 19 1016.6
20260509081843 70 165 1.0 3.0 0.00 0.00 0.00 19 1016.5
20260509081344 70 184 1.0 2.0 0.00 0.00 0.00 19 1016.5
20260509080840 70 163 1.0 2.0 0.00 0.00 0.00 19 1016.5
20260509080340 71 163 2.0 3.0 0.00 0.00 0.00 19 1016.5
20260509075840 70 163 1.0 3.0 0.00 0.00 0.00 19 1016.5
20260509075339 70 180 1.0 3.0 0.00 0.00 0.00 19 1016.4
20260509074840 71 222 0.0 2.0 0.00 0.00 0.00 18 1016.5
20260509074339 71 186 0.0 2.0 0.00 0.00 0.00 19 1016.5
20260509073835 71 186 0.0 1.0 0.00 0.00 0.00 18 1016.5
20260509073335 72 186 1.0 2.0 0.00 0.00 0.00 18 1016.5
20260509072835 72 186 1.0 3.0 0.00 0.00 0.00 18 1016.5
20260509072335 72 186 1.0 3.0 0.00 0.00 0.00 18 1016.5
20260509071836 73 186 1.0 2.0 0.00 0.00 0.00 18 1016.5
20260509071336 73 186 0.0 2.0 0.00 0.00 0.00 17 1016.5
20260509070835 74 186 0.0 4.0 0.00 0.00 0.00 17 1016.5
20260509070335 75 186 0.0 4.0 0.00 0.00 0.00 16 1016.5
20260509065338 77 186 1.0 4.0 0.00 0.00 0.00 14 1016.5
20260509064836 78 120 1.0 4.0 0.00 0.00 0.00 14 1016.5
20260509064336 78 192 1.0 4.0 0.00 0.00 0.00 13 1016.3
20260509063834 78 242 2.0 8.0 0.00 0.00 0.00 13 1016.4
20260509063334 78 201 3.0 8.0 0.00 0.00 0.00 13 1016.2
20260509061830 79 223 4.0 8.0 0.00 0.00 0.00 13 1016.0
20260509060828 79 247 4.0 9.0 0.00 0.00 0.00 13 1015.8
20260509060328 79 264 5.0 11.0 0.00 0.00 0.00 13 1015.8
20260509055826 79 245 5.0 11.0 0.00 0.00 0.00 13 1015.7
20260509055325 79 254 5.0 11.0 0.00 0.00 0.00 13 1015.7
20260509054824 79 218 5.0 12.0 0.00 0.00 0.00 13 1015.7
20260509054324 79 232 5.0 12.0 0.00 0.00 0.00 13 1015.6
20260509053824 79 200 5.0 10.0 0.00 0.00 0.00 13 1015.5
20260509052824 80 218 5.0 15.0 0.00 0.00 0.00 13 1015.5
20260509052325 80 207 5.0 12.0 0.00 0.00 0.00 13 1015.5
20260509051822 80 258 5.0 12.0 0.00 0.00 0.00 13 1015.5
20260509050821 80 200 5.0 13.0 0.00 0.00 0.00 13 1015.5
20260509050318 80 258 5.0 14.0 0.00 0.00 0.00 13 1015.5
20260509045818 80 244 6.0 14.0 0.00 0.00 0.00 13 1015.2
20260509044316 80 192 6.0 14.0 0.00 0.00 0.00 13 1015.2
20260509043815 80 171 6.0 12.0 0.00 0.00 0.00 13 1014.9
20260509043314 80 198 6.0 16.0 0.00 0.00 0.00 13 1015.0
20260509042812 80 211 6.0 16.0 0.00 0.00 0.00 14 1015.0
20260509042308 80 207 7.0 13.0 0.00 0.00 0.00 14 1014.9
20260509041808 80 242 6.0 13.0 0.00 0.00 0.00 14 1014.8
20260509041308 80 257 5.0 12.0 0.00 0.00 0.00 14 1014.8
20260509040806 80 239 5.0 11.0 0.00 0.00 0.00 14 1014.8
20260509040306 80 194 4.0 10.0 0.00 0.00 0.00 14 1014.8
20260509035806 80 278 4.0 9.0 0.00 0.00 0.00 14 1014.9
20260509035306 80 191 4.0 9.0 0.00 0.00 0.00 14 1014.9
20260509034304 80 238 4.0 9.0 0.00 0.00 0.00 14 1014.8
20260509033804 80 258 4.0 9.0 0.00 0.00 0.00 14 1014.8
20260509033304 80 206 4.0 9.0 0.00 0.00 0.00 14 1014.7
20260509032804 80 190 5.0 13.0 0.00 0.00 0.00 14 1014.7
20260509032306 81 209 5.0 13.0 0.00 0.00 0.00 14 1014.7
20260509031300 81 244 5.0 11.0 0.00 0.00 0.00 14 1014.6
20260509030301 81 242 5.0 12.0 0.00 0.00 0.00 14 1014.4
20260509025800 81 240 5.0 12.0 0.00 0.00 0.00 14 1014.3
20260509025306 81 229 5.0 9.0 0.00 0.00 0.00 14 1014.3
20260509024756 81 194 5.0 11.0 0.00 0.00 0.00 14 1014.3
20260509024257 81 200 5.0 11.0 0.00 0.00 0.00 14 1014.2
20260509023756 82 216 5.0 10.0 0.00 0.00 0.00 14 1014.2
20260509023257 82 219 5.0 11.0 0.00 0.00 0.00 14 1014.2
20260509022756 82 250 5.0 11.0 0.00 0.00 0.00 14 1014.2
20260509022255 82 214 5.0 11.0 0.00 0.00 0.00 14 1014.1
20260509021255 82 211 5.0 11.0 0.00 0.00 0.00 14 1013.9
20260509020753 83 249 5.0 11.0 0.00 0.00 0.00 14 1014.0
20260509020252 83 238 6.0 12.0 0.00 0.00 0.00 14 1013.9
20260509015752 83 200 6.0 12.0 0.00 0.00 0.00 14 1013.8
20260509015252 83 219 5.0 12.0 0.00 0.00 0.00 14 1013.7
20260509014751 83 272 5.0 9.0 0.00 0.00 0.00 13 1013.7
20260509014252 83 202 4.0 9.0 0.00 0.00 0.00 14 1013.7
20260509013752 83 237 4.0 9.0 0.00 0.00 0.00 14 1013.7
20260509013252 83 172 4.0 10.0 0.00 0.00 0.00 13 1013.7
20260509012752 84 213 4.0 10.0 0.00 0.00 0.00 13 1013.7
20260509012252 84 192 5.0 12.0 0.00 0.00 0.00 13 1013.7
20260509011751 84 224 4.0 12.0 0.00 0.00 0.00 13 1013.7
20260509011247 85 206 4.0 7.0 0.00 0.00 0.00 13 1013.7
20260509010746 85 233 4.0 11.0 0.00 0.00 0.00 13 1013.7
20260509010244 85 184 4.0 11.0 0.00 0.00 0.00 13 1013.5
20260509005744 86 195 4.0 11.0 0.00 0.00 0.00 12 1013.7
20260509005244 86 207 5.0 11.0 0.00 0.00 0.00 12 1013.7
20260509004744 86 223 4.0 11.0 0.00 0.00 0.00 12 1013.7
20260509003742 87 243 3.0 7.0 0.00 0.00 0.00 12 1013.7
20260509003245 88 203 3.0 7.0 0.00 0.00 0.00 12 1013.5
20260509002739 89 188 2.0 6.0 0.00 0.00 0.00 11 1013.7
20260509001738 89 225 3.0 8.0 0.00 0.00 0.00 11 1013.7
20260509001235 89 186 2.0 6.0 0.00 0.00 0.00 11 1013.7
20260509000735 89 192 3.0 9.0 0.00 0.00 0.00 11 1013.7
20260509000234 89 196 4.0 9.0 0.00 0.00 0.00 11 1013.8
20260508235734 89 198 3.0 9.0 0.00 0.00 0.00 11 1013.7
20260508235234 89 200 3.0 8.0 0.00 0.00 0.00 11 1013.8
20260508234234 91 214 3.0 12.0 0.00 0.00 0.00 10 1013.8
20260508233734 90 209 3.0 8.0 0.00 0.00 0.00 11 1013.7
20260508233234 91 232 3.0 8.0 0.00 0.00 0.00 10 1013.8
20260508232734 91 242 2.0 6.0 0.00 0.00 0.00 10 1013.9
20260508231734 90 250 3.0 10.0 0.00 0.00 0.00 11 1013.7
20260508231230 90 104 4.0 10.0 0.00 0.00 0.00 12 1013.9
20260508230730 90 157 4.0 9.0 0.00 0.00 0.00 12 1013.8
20260508225730 88 146 3.0 7.0 0.00 0.00 0.00 13 1014.0
20260508225233 87 159 4.0 10.0 0.00 0.00 0.00 13 1014.0
20260508224732 87 193 4.0 10.0 0.00 0.00 0.00 12 1014.0
20260508224228 88 176 4.0 11.0 0.00 0.00 0.00 13 1014.0
20260508223726 88 119 5.0 11.0 0.00 0.00 0.00 12 1014.1
20260508223226 90 166 4.0 11.0 0.00 0.00 0.00 12 1014.1
20260508222727 91 175 3.0 11.0 0.00 0.00 0.00 11 1014.2